ファン・ネス彗星

213P/Van Ness (2017)

English version
Home page
Updated on August 6, 2017

---------------------------------------------------------------------

・ プロフィール

・ 写真集

・ 軌道要素

Epoch 2017 Oct. 14.0 TT = JDT 2458040.5
T 2017 Sept. 24.43735 TT                                Nakano
q   1.9835162            (2000.0)            P               Q
n   0.16091357     Peri.    5.56392     +0.72887411     +0.67115306
a   3.3476569      Node   311.32792     -0.63489448     +0.58864659
e   0.4074912      Incl.   10.37701     -0.25622554     +0.45060931
P   6.13
From 2875 observations 2005 Aug. 4-2017 May 6, mean residual 0".6.
     Nongravitational parameters A1 = -1.67, A2 = +0.4288, A3 = -1.2999.

・ 星図

・ 光度変化

        m1 = -5.0 + 5 logΔ + 60 log r  [ ,0]  (              〜2017年 9月24日)
        m1 =  4.0 + 5 logΔ + 30 log r  [0, ]  (2017年 9月24日〜              )

---------------------------------------------------------------------

軌道要素はM.P.E.C. 2017-L52に掲載されたものです。
星図はステラナビゲータ Ver.8 (アストロアーツ) で作成したものです。
光度グラフはComet for Windowsで作成したものです。

---------------------------------------------------------------------

Copyright(C) Seiichi Yoshida (comet@aerith.net). All rights reserved.